GW0234 Weather Reports


Display with metric or nautical units.
time (UTC)temp
F
wind
direction
speed
MPH
gust
MPH
rain 1hr
in
rain 24hr
in
rain mn
in
humidity
%
barometer
mb
20260903020106 74 0 0.0 0.0 0.00 0.00 0.00 85 1014.6
20260903014604 75 0 0.0 0.0 0.00 0.00 0.00 85 1014.9
20260903013106 75 0 0.0 0.0 0.00 0.00 0.00 84 1014.7
20260903011607 75 0 0.0 0.0 0.00 0.00 0.00 83 1014.7
20260903010110 76 0 0.0 0.0 0.00 0.00 0.00 81 1015.0
20260903004602 77 0 0.0 1.0 0.00 0.00 0.00 81 1014.7
20260903003108 78 0 0.0 1.0 0.00 0.00 0.00 80 1014.6
20260903001608 79 0 0.0 2.0 0.00 0.00 0.00 79 1014.4
20260903000104 81 42 0.0 2.0 0.00 0.00 0.00 78 1014.3
20260902234605 82 0 0.0 1.0 0.00 0.00 0.00 78 1014.5
20260902233058 83 0 0.0 1.0 0.00 0.00 0.00 77 1014.5
20260902231606 83 0 0.0 1.0 0.00 0.00 0.00 77 1014.7
20260902230124 84 0 0.0 2.0 0.00 0.00 0.00 76 1014.5
20260902224607 85 0 0.0 2.0 0.00 0.00 0.00 75 1014.3
20260902223102 87 42 0.0 2.0 0.00 0.00 0.00 72 1014.5
20260902221610 88 42 0.0 2.0 0.00 0.00 0.00 72 1014.6
20260902220110 88 0 0.0 3.0 0.00 0.00 0.00 70 1014.2
20260902214633 89 0 1.0 4.0 0.00 0.00 0.00 66 1014.3
20260902213106 90 360 1.0 8.0 0.00 0.00 0.00 63 1014.6
20260902211606 91 20 1.0 6.0 0.00 0.00 0.00 61 1014.7
20260902210135 91 5 2.0 6.0 0.00 0.00 0.00 62 1014.5
20260902204606 91 360 2.0 7.0 0.00 0.00 0.00 63 1014.7
20260902203106 91 14 3.0 9.0 0.00 0.00 0.00 63 1015.0
20260902201625 91 342 2.0 8.0 0.00 0.00 0.00 64 1015.2
20260902200112 90 59 2.0 9.0 0.00 0.00 0.00 64 1015.3
20260902194605 90 63 2.0 8.0 0.00 0.00 0.00 65 1015.3
20260902193104 90 351 2.0 7.0 0.00 0.00 0.00 65 1015.3
20260902191604 90 355 2.0 4.0 0.00 0.00 0.00 68 1015.6
20260902190127 89 63 1.0 11.0 0.00 0.00 0.00 69 1015.7
20260902184611 89 53 4.0 9.0 0.00 0.00 0.00 70 1015.9
20260902183109 89 24 4.0 10.0 0.00 0.00 0.00 70 1016.1
20260902181624 88 332 3.0 10.0 0.00 0.00 0.00 73 1016.3
20260902174605 87 334 3.0 8.0 0.00 0.00 0.00 76 1016.6
20260902173107 86 5 1.0 8.0 0.00 0.00 0.00 76 1016.8
20260902171621 86 5 1.0 5.0 0.00 0.00 0.00 80 1016.7
20260902170107 85 0 0.0 3.0 0.00 0.00 0.00 81 1016.9
20260902164605 84 309 0.0 2.0 0.00 0.00 0.00 80 1017.1
20260902163106 83 0 0.0 3.0 0.00 0.00 0.00 82 1017.2
20260902161605 81 279 0.0 2.0 0.00 0.00 0.00 86 1017.3
20260902160109 80 229 1.0 3.0 0.00 0.00 0.00 85 1017.4
20260902154604 80 0 0.0 2.0 0.00 0.00 0.00 88 1017.4
20260902153107 78 121 0.0 2.0 0.00 0.00 0.00 90 1017.3
20260902151604 76 0 0.0 2.0 0.00 0.00 0.00 91 1017.4
20260902150109 75 355 0.0 1.0 0.00 0.00 0.00 92 1017.5
20260902144607 75 0 0.0 4.0 0.00 0.00 0.00 93 1017.5
20260902143108 74 5 0.0 2.0 0.00 0.00 0.00 93 1017.3
20260902141605 73 325 0.0 2.0 0.00 0.00 0.00 93 1017.5
20260902140100 73 296 0.0 4.0 0.00 0.00 0.00 93 1017.9
20260902134619 72 0 0.0 1.0 0.00 0.00 0.00 93 1017.5
20260902133105 72 0 0.0 0.0 0.00 0.00 0.00 93 1017.4
20260902131602 71 0 0.0 1.0 0.00 0.00 0.00 93 1017.2
20260902124603 70 0 0.0 1.0 0.00 0.00 0.00 93 1016.8
20260902123103 70 0 0.0 1.0 0.00 0.00 0.00 94 1016.7
20260902121600 69 0 0.0 0.0 0.00 0.00 0.00 94 1016.7
20260902120120 69 0 0.0 1.0 0.00 0.00 0.00 94 1016.7
20260902114604 68 0 0.0 1.0 0.00 0.00 0.00 93 1016.8
20260902113110 68 0 0.0 1.0 0.00 0.00 0.00 93 1016.1
20260902111605 68 20 0.0 1.0 0.00 0.00 0.00 93 1016.2
20260902104603 68 0 0.0 1.0 0.00 0.00 0.00 93 1016.1
20260902103103 68 0 0.0 1.0 0.00 0.00 0.00 93 1016.3
20260902101603 68 20 0.0 2.0 0.00 0.00 0.00 93 1016.2
20260902100101 68 0 0.0 3.0 0.00 0.00 0.00 93 1016.0
20260902094600 67 0 0.0 0.0 0.00 0.00 0.00 93 1016.1
20260902093104 68 0 0.0 0.0 0.00 0.00 0.00 93 1016.1
20260902091559 67 0 0.0 0.0 0.00 0.00 0.00 92 1016.2
20260902090106 68 0 0.0 0.0 0.00 0.00 0.00 92 1016.3
20260902084609 68 0 0.0 0.0 0.00 0.00 0.00 92 1016.3
20260902083108 68 0 0.0 0.0 0.00 0.00 0.00 92 1016.2
20260902081605 68 0 0.0 0.0 0.00 0.00 0.00 91 1016.2
20260902080106 68 0 0.0 0.0 0.00 0.00 0.00 92 1016.3
20260902074617 68 0 0.0 0.0 0.00 0.00 0.00 92 1016.3
20260902073105 68 0 0.0 0.0 0.00 0.00 0.00 91 1016.5
20260902071602 68 0 0.0 0.0 0.00 0.00 0.00 91 1016.5
20260902070106 68 0 0.0 0.0 0.00 0.00 0.00 91 1016.5
20260902064601 68 0 0.0 0.0 0.00 0.00 0.00 91 1016.6
20260902063116 68 0 0.0 0.0 0.00 0.00 0.00 90 1016.8
20260902061608 68 0 0.0 0.0 0.00 0.00 0.00 90 1016.7
20260902060126 69 0 0.0 0.0 0.00 0.00 0.00 90 1016.8
20260902054611 69 0 0.0 0.0 0.00 0.00 0.00 90 1016.7
20260902053109 69 0 0.0 0.0 0.00 0.00 0.00 89 1016.7
20260902051603 70 0 0.0 0.0 0.00 0.00 0.00 90 1016.6
20260902050106 70 0 0.0 0.0 0.00 0.00 0.00 89 1016.3
20260902044607 70 0 0.0 0.0 0.00 0.00 0.00 90 1016.2
20260902043113 70 0 0.0 1.0 0.00 0.00 0.00 89 1016.3
20260902041608 70 0 0.0 1.0 0.00 0.00 0.00 89 1016.3
20260902040108 70 0 0.0 0.0 0.00 0.00 0.00 88 1016.2
20260902034617 71 0 0.0 0.0 0.00 0.00 0.00 87 1016.1
20260902033104 71 0 0.0 1.0 0.00 0.00 0.00 88 1016.0
20260902031607 71 0 0.0 0.0 0.00 0.00 0.00 88 1016.0
20260902030106 71 0 0.0 0.0 0.00 0.00 0.00 87 1016.0
20260902024604 72 0 0.0 1.0 0.00 0.00 0.00 87 1016.1
20260902023104 72 0 0.0 1.0 0.00 0.00 0.00 86 1016.0
20260902021609 73 0 0.0 1.0 0.00 0.00 0.00 86 1015.9